Starlink 31298

operational
NORAD ID: 59167 Int'l Des: 2024-044 Owner: SPXS Country: US Constellation: starlink
LEOCIRCULAR

关于 Starlink 31298

正在加载描述...

实时位置

正在加载3D地球...

即将过境

高度历史

Altitude vs Time

uPlot chart will show altitude changes over time

两行轨道根数

1 59167U 24044R 25304.21056027 .00002102 00000-0 85886-4 0 9993
2 59167 43.0021 118.2397 0001450 267.6301 92.4385 15.27584264 93766
Epoch: Oct 31, 2025 • Age: 6 hours

当前状态

高度 493.3 km
速度 7.62 km/s
星下点 -37.76°S, 144.68°W
发射日期 Mar 4, 2024
运行时间 1.6 years
类型 internet

技术详情

分类 Payload
质量 730.00 kg
干质量 700.00 kg
总质量 730.00 kg
长度 0.30 m
直径 4.10 m
跨度 29.00 m
形状 Box + pan
制造商 SPXS
平台类型 Starlink V2M
阶段状态 In Orbit
所有者/国家 SPXS/US

大型星座

Loading constellations...